This is the latest recevied weather packets stored in our database for station/object KD9JJA. If no packets are shown the sender has not sent any weather packets the latest 10 day(s).
| Time | Temp. | Humidity | Pressure | Rain* | Wind** | Luminosity | Snow |
|---|---|---|---|---|---|---|---|
| 1776985859 | 26.67° C | 40% | 1012.4 hPa | 0 mm | - | 28 W/m² | - |
| 1776985556 | 26.67° C | 41% | 1012.4 hPa | 0 mm | - | 49 W/m² | - |
| 1776985252 | 26.67° C | 39% | 1012.6 hPa | 0 mm | - | 41 W/m² | - |
| 1776984949 | 26.67° C | 42% | 1012.7 hPa | 0 mm | - | 37 W/m² | - |
| 1776984644 | 26.11° C | 42% | 1012.6 hPa | 0 mm | - | 43 W/m² | - |
| 1776984340 | 26.11° C | 45% | 1012.6 hPa | 0 mm | - | 42 W/m² | - |
| 1776984037 | 26.67° C | 43% | 1012.6 hPa | 0 mm | - | 31 W/m² | - |
| 1776983732 | 26.67° C | 40% | 1012.9 hPa | 0 mm | - | 39 W/m² | - |
| 1776983428 | 26.67° C | 40% | 1012.9 hPa | 0 mm | - | 42 W/m² | - |
| 1776983126 | 26.11° C | 41% | 1012.9 hPa | 0 mm | - | 39 W/m² | - |
| 1776982822 | 26.67° C | 41% | 1012.9 hPa | 0 mm | - | 49 W/m² | - |
| 1776982520 | 26.67° C | 39% | 1013 hPa | 0 mm | - | 46 W/m² | - |
| 1776982215 | 26.67° C | 40% | 1012.8 hPa | 0 mm | - | 46 W/m² | - |
| 1776981909 | 26.67° C | 43% | 1012.8 hPa | 0 mm | - | 43 W/m² | - |
| 1776981605 | 26.67° C | 39% | 1013 hPa | 0 mm | - | 52 W/m² | - |
| 1776981300 | 26.67° C | 43% | 1013.2 hPa | 0 mm | - | 48 W/m² | - |
| 1776980995 | 26.67° C | 41% | 1013 hPa | 0 mm | - | 58 W/m² | - |
| 1776980693 | 26.67° C | 40% | 1013.2 hPa | 0 mm | - | 115 W/m² | - |
| 1776980389 | 26.67° C | 41% | 1013 hPa | 0 mm | - | 68 W/m² | - |
| 1776980080 | 27.22° C | 41% | 1013.2 hPa | 0 mm | - | 42 W/m² | - |
| 1776979776 | 27.78° C | 43% | 1013.1 hPa | 0 mm | - | 81 W/m² | - |
| 1776979473 | 27.78° C | 41% | 1013.2 hPa | 0 mm | - | 276 W/m² | - |
| 1776979168 | 26.67° C | 40% | 1013.1 hPa | 0 mm | - | 217 W/m² | - |
| 1776978866 | 26.67° C | 43% | 1013.2 hPa | 0 mm | - | 118 W/m² | - |
| 1776978563 | 26.67° C | 44% | 1013.3 hPa | 0 mm | - | 80 W/m² | - |
* Rain latest hour (hover to see other rain measurements)
** Current wind speed in m/s (hover to see current wind gust speed)